[[{"header":{"parameterUnit":"m.s-1","parameterCategory":1,"la1":30.2991,"la2":30.254,"lo1":-89.0895,"lo2":-89.0444,"dy":0.0017,"dx":0.0017,"nx":28,"ny":28,"refTime":"2023-03-18T21:00:00:Z","depth":0,"parameterNumber":2,"parameterNumberName":"U-component_of_WINDS"},"data":[0,0,0,0,0,0,0,0,0,0,0,0,0,0,0,0,0,0,0,0,0,0,0,0,0,0,0,0,0,0,0,0,0,0,0,0,0,0,0,0,0,0,0,0,0,0,0,0,0,0,0,0,0,0,0,0,0,0,-1.3304,-1.3304,0,-1.3268,-1.3268,-1.3268,-1.3242,-1.3242,-1.3241,-1.3241,-1.3204,-1.3203,-1.3202,0,0,0,0,0,0,0,0,0,0,0,0,0,-1.335,-1.3349,-1.3304,-1.3304,-1.3303,-1.3268,-1.3268,-1.3267,-1.3242,-1.3242,-1.3241,-1.3241,-1.3204,-1.3203,-1.3202,0,0,0,0,0,0,0,0,0,0,0,0,0,-1.3324,-1.3349,-1.3304,-1.3286,-1.3284,-1.3269,-1.3268,-1.3267,-1.3242,-1.3242,-1.3241,-1.3241,-1.3204,-1.3203,-1.3202,-1.3201,0,0,-1.3198,-1.3198,0,0,0,0,0,0,0,0,-1.3325,-1.3322,-1.329,-1.3288,-1.3285,-1.3259,-1.327,-1.3245,-1.3242,-1.3258,-1.3241,-1.3241,-1.3222,-1.322,-1.3214,-1.3199,-1.3197,-1.3198,-1.3197,-1.3197,-1.3196,0,0,0,0,0,0,0,-1.3327,-1.3323,-1.329,-1.3289,-1.3287,-1.328,-1.3276,-1.3265,-1.3242,-1.3257,-1.3255,-1.3251,-1.3221,-1.3215,-1.3212,-1.3197,-1.3198,-1.3197,-1.3196,-1.3196,-1.3179,-1.3179,0,0,0,0,0,0,-1.3332,-1.3325,-1.3291,-1.3289,-1.3305,-1.3279,-1.3275,-1.3268,-1.3242,-1.3238,-1.3251,-1.325,-1.3217,-1.3214,-1.3211,-1.3208,-1.3197,-1.3196,-1.3195,-1.3179,-1.3179,-1.3179,0,0,0,0,0,0,-1.3333,-1.3329,-1.3293,-1.3306,-1.3301,-1.3279,-1.3271,-1.3267,-1.3261,-1.3238,-1.3234,-1.3249,-1.3217,-1.3213,-1.3203,-1.3206,-1.3195,-1.3194,-1.3178,-1.3179,-1.3179,-1.3202,0,0,0,0,0,0,-1.3334,-1.333,-1.3329,-1.3307,-1.3301,-1.3286,-1.3272,-1.3267,-1.3259,-1.3257,-1.3235,-1.3231,-1.3216,-1.3205,-1.3202,-1.3204,-1.3193,-1.3178,-1.3179,-1.3179,-1.3201,-1.3203,-1.3205,0,0,0,0,0,-1.3336,-1.3337,-1.3329,-1.3325,-1.33,-1.3286,-1.3283,-1.3266,-1.3259,-1.3259,-1.3244,-1.3232,-1.3206,-1.3205,-1.3201,-1.3203,-1.3178,-1.3178,-1.3179,-1.32,-1.3202,-1.3205,0,0,0,0,0,0,-1.336,-1.3334,-1.3325,-1.3318,-1.3305,-1.3282,-1.328,-1.3269,-1.3257,-1.3255,-1.3234,-1.323,-1.3223,-1.3212,-1.321,-1.32,-1.3191,-1.319,-1.3208,-1.321,-1.3212,-1.3215,-1.3192,0,0,0,0,0,-1.3365,-1.3356,-1.3333,-1.333,-1.3323,-1.3303,-1.3297,-1.3285,-1.327,-1.3264,-1.3248,-1.3234,-1.3223,-1.3216,-1.3204,-1.3199,-1.3194,-1.3198,-1.32,-1.3202,-1.3202,-1.3199,-1.32,-1.3181,-1.3181,-1.3181,0,0,-1.3374,-1.3358,-1.3354,-1.3334,-1.3322,-1.3314,-1.3298,-1.329,-1.3283,-1.3262,-1.3253,-1.3241,-1.3223,-1.3216,-1.3212,-1.3207,-1.3206,-1.3203,-1.3205,-1.3204,-1.32,-1.3201,-1.3203,-1.3182,-1.3182,-1.3182,0,0,-1.3386,-1.3374,-1.337,-1.3358,-1.334,-1.3327,-1.3326,-1.3304,-1.3296,-1.3286,-1.327,-1.3261,-1.3242,-1.323,-1.3222,-1.323,-1.3218,-1.3227,-1.3237,-1.3234,-1.3236,-1.3237,-1.324,-1.3241,-1.3227,-1.3227,-1.3227,0,-1.34,-1.3387,-1.3369,-1.3361,-1.3353,-1.3333,-1.3329,-1.3318,-1.3297,-1.3292,-1.3286,-1.3262,-1.3249,-1.3238,-1.324,-1.3234,-1.3232,-1.3229,-1.3237,-1.3238,-1.3239,-1.3241,-1.3242,-1.3228,-1.3228,-1.3228,-1.3228,0,-1.3405,-1.3396,-1.3394,-1.3375,-1.3366,-1.336,-1.3341,-1.3334,-1.3323,-1.331,-1.33,-1.3283,-1.3268,-1.3265,-1.3254,-1.3253,-1.325,-1.3241,-1.3231,-1.3242,-1.3244,-1.3245,-1.323,-1.3229,-1.3229,-1.3229,0,0,-1.3432,-1.3402,-1.3402,-1.3393,-1.3372,-1.3364,-1.3357,-1.3342,-1.3337,-1.3323,-1.3317,-1.3301,-1.3292,-1.3283,-1.327,-1.3267,-1.3274,-1.3258,-1.3257,-1.3262,-1.3272,-1.328,-1.3281,-1.3266,-1.3266,-1.3266,-1.3274,0,-1.3441,-1.3428,-1.3411,-1.3403,-1.3395,-1.3376,-1.337,-1.3356,-1.3343,-1.3334,-1.332,-1.3309,-1.3299,-1.3293,-1.3289,-1.3274,-1.3276,-1.3273,-1.326,-1.326,-1.3265,-1.3282,-1.329,-1.3297,-1.3275,-1.3275,-1.3275,0,-1.3451,-1.3438,-1.3429,-1.3409,-1.3404,-1.3399,-1.3384,-1.3375,-1.3359,-1.335,-1.334,-1.3326,-1.3317,-1.3308,-1.3296,-1.3294,-1.3288,-1.3279,-1.3279,-1.3278,-1.3268,-1.3281,-1.3299,-1.3301,-1.3276,-1.3276,-1.3276,0,-1.3471,-1.3452,-1.3444,-1.3437,-1.3413,-1.341,-1.3399,-1.3383,-1.3375,-1.3361,-1.3356,-1.3342,-1.3334,-1.3323,-1.3306,-1.3301,-1.3296,-1.3285,-1.3288,-1.3288,-1.3288,-1.3288,-1.3306,-1.3283,-1.3283,-1.3283,-1.3283,0,-1.3484,-1.3479,-1.3453,-1.3449,-1.3443,-1.3424,-1.3419,-1.3406,-1.3392,-1.3384,-1.3367,-1.336,-1.3337,-1.3328,-1.3314,-1.3306,-1.3303,-1.3295,-1.3292,-1.3297,-1.3298,-1.3292,-1.3291,-1.3283,-1.3283,-1.3283,-1.3283,0,-1.3506,-1.3489,-1.3479,-1.3457,-1.3451,-1.3448,-1.3429,-1.3423,-1.341,-1.34,-1.3397,-1.3376,-1.3363,-1.3345,-1.3327,-1.3318,-1.3312,-1.3306,-1.3318,-1.3316,-1.332,-1.332,-1.3335,-1.3336,-1.3312,-1.3313,-1.3313,0,-1.3515,-1.3512,-1.3489,-1.3483,-1.3473,-1.3463,-1.3455,-1.3436,-1.3428,-1.3409,-1.3406,-1.3392,-1.338,-1.3362,-1.3345,-1.3331,-1.3325,-1.3331,-1.3322,-1.3328,-1.3325,-1.3325,-1.3325,-1.3333,-1.3333,-1.3334,-1.3334,0,-1.3534,-1.3525,-1.3514,-1.35,-1.3491,-1.3479,-1.3466,-1.3462,-1.344,-1.3432,-1.3419,-1.341,-1.3392,-1.3379,-1.3363,-1.3352,-1.3339,-1.3336,-1.3336,-1.3342,-1.3349,-1.3345,-1.3323,-1.3336,-1.3336,-1.3336,-1.3336,-1.3336,-1.355,-1.3545,-1.3529,-1.3517,-1.3505,-1.3494,-1.3488,-1.3473,-1.3463,-1.3447,-1.3436,-1.3424,-1.3407,-1.3384,-1.3374,-1.3364,-1.3359,-1.3358,-1.3358,-1.3359,-1.3361,-1.335,-1.3361,-1.3361,-1.3361,-1.3361,-1.3361,0,-1.3567,-1.3556,-1.3545,-1.3528,-1.3519,-1.3507,-1.3493,-1.3486,-1.3475,-1.3461,-1.345,-1.3435,-1.3422,-1.3404,-1.339,-1.3385,-1.3379,-1.3382,-1.3383,-1.338,-1.3366,-1.3368,-1.3388,-1.3388,-1.3388,-1.3388,-1.3388,-1.3388,-1.3575,-1.3568,-1.3557,-1.3543,-1.3531,-1.352,-1.3512,-1.3501,-1.349,-1.3474,-1.3464,-1.3452,-1.3436,-1.342,-1.3408,-1.3402,-1.3398,-1.3403,-1.3396,-1.3384,-1.3381,-1.3379,-1.338,-1.3402,-1.3402,-1.3411,-1.3411,-1.3411]},{"header":{"parameterUnit":"m.s-1","parameterCategory":1,"la1":30.2991,"la2":30.254,"lo1":-89.0895,"lo2":-89.0444,"dy":0.0017,"dx":0.0017,"nx":28,"ny":28,"refTime":"2023-03-18T21:00:00:Z","depth":0,"parameterNumber":3,"parameterNumberName":"V-component_of_WINDS"},"data":[0,0,0,0,0,0,0,0,0,0,0,0,0,0,0,0,0,0,0,0,0,0,0,0,0,0,0,0,0,0,0,0,0,0,0,0,0,0,0,0,0,0,0,0,0,0,0,0,0,0,0,0,0,0,0,0,0,0,-1.8667,-1.8668,0,-1.8739,-1.874,-1.8741,-1.8772,-1.8772,-1.8772,-1.8771,-1.8843,-1.8845,-1.8847,0,0,0,0,0,0,0,0,0,0,0,0,0,-1.8555,-1.8557,-1.8667,-1.8668,-1.8669,-1.8739,-1.874,-1.8741,-1.8772,-1.8772,-1.8772,-1.8771,-1.8843,-1.8845,-1.8847,0,0,0,0,0,0,0,0,0,0,0,0,0,-1.8613,-1.8557,-1.8667,-1.8693,-1.8696,-1.8739,-1.874,-1.8741,-1.8772,-1.8772,-1.8772,-1.8771,-1.8842,-1.8845,-1.8848,-1.887,0,0,-1.8857,-1.8858,0,0,0,0,0,0,0,0,-1.8609,-1.8617,-1.8688,-1.8691,-1.8694,-1.8746,-1.8727,-1.8784,-1.8772,-1.8743,-1.8771,-1.8771,-1.8811,-1.8817,-1.883,-1.8873,-1.8876,-1.8857,-1.8859,-1.886,-1.8861,0,0,0,0,0,0,0,-1.8605,-1.8614,-1.8695,-1.8689,-1.8693,-1.87,-1.8708,-1.8738,-1.8777,-1.8745,-1.8748,-1.8756,-1.8813,-1.8827,-1.8832,-1.8877,-1.8857,-1.886,-1.8862,-1.8863,-1.8943,-1.8944,0,0,0,0,0,0,-1.8597,-1.861,-1.8693,-1.8697,-1.8651,-1.8702,-1.8711,-1.873,-1.8777,-1.8784,-1.8756,-1.8757,-1.8822,-1.8829,-1.8835,-1.8865,-1.886,-1.8863,-1.8865,-1.8943,-1.8944,-1.8944,0,0,0,0,0,0,-1.8595,-1.8604,-1.869,-1.8655,-1.8666,-1.8705,-1.8725,-1.8731,-1.8746,-1.8785,-1.8792,-1.8764,-1.8822,-1.8831,-1.8861,-1.8868,-1.8865,-1.8867,-1.8943,-1.8943,-1.8944,-1.8925,0,0,0,0,0,0,-1.8591,-1.8603,-1.8612,-1.8655,-1.8668,-1.8716,-1.8725,-1.8733,-1.8751,-1.8754,-1.8794,-1.8801,-1.8823,-1.8857,-1.8864,-1.8872,-1.887,-1.8942,-1.8943,-1.8944,-1.8925,-1.8925,-1.8924,0,0,0,0,0,-1.8587,-1.8603,-1.8612,-1.8622,-1.868,-1.8716,-1.8723,-1.8749,-1.8752,-1.8761,-1.8786,-1.8799,-1.8866,-1.886,-1.8869,-1.8877,-1.8942,-1.8943,-1.8943,-1.8925,-1.8925,-1.8924,0,0,0,0,0,0,-1.8559,-1.8609,-1.862,-1.865,-1.8679,-1.8721,-1.8734,-1.8748,-1.8776,-1.8776,-1.8807,-1.8816,-1.8844,-1.8864,-1.8856,-1.8902,-1.8905,-1.8908,-1.8888,-1.8888,-1.8888,-1.8883,-1.8872,0,0,0,0,0,-1.8557,-1.8582,-1.8624,-1.8647,-1.8661,-1.8695,-1.8711,-1.8729,-1.8759,-1.8771,-1.8799,-1.8827,-1.8855,-1.8872,-1.89,-1.8928,-1.8938,-1.8938,-1.8938,-1.8937,-1.894,-1.8957,-1.8959,-1.8946,-1.8946,-1.8946,0,0,-1.8551,-1.8582,-1.8596,-1.8642,-1.8666,-1.8692,-1.8704,-1.8731,-1.875,-1.8775,-1.8807,-1.8828,-1.8862,-1.8892,-1.8906,-1.8909,-1.8945,-1.8938,-1.8938,-1.894,-1.8958,-1.8959,-1.896,-1.8947,-1.8947,-1.8947,0,0,-1.8556,-1.8581,-1.8603,-1.8628,-1.8665,-1.8687,-1.8693,-1.8733,-1.8749,-1.8781,-1.8801,-1.8824,-1.887,-1.8894,-1.8913,-1.8927,-1.8941,-1.8935,-1.8933,-1.895,-1.8951,-1.8952,-1.8959,-1.8961,-1.8937,-1.8937,-1.8937,0,-1.8544,-1.8584,-1.8612,-1.8639,-1.8659,-1.8684,-1.8707,-1.8729,-1.8772,-1.8785,-1.8788,-1.8848,-1.8872,-1.8909,-1.8913,-1.8926,-1.8934,-1.8931,-1.8949,-1.895,-1.8952,-1.8958,-1.8961,-1.8936,-1.8936,-1.8936,-1.8936,0,-1.8569,-1.8597,-1.861,-1.8654,-1.8675,-1.8699,-1.8731,-1.875,-1.8766,-1.8788,-1.8821,-1.8851,-1.8886,-1.8896,-1.8911,-1.8935,-1.8936,-1.8943,-1.8947,-1.8952,-1.8958,-1.8961,-1.8935,-1.8935,-1.8935,-1.8935,0,0,-1.8557,-1.8617,-1.8621,-1.8642,-1.8685,-1.8707,-1.8733,-1.8768,-1.8784,-1.8813,-1.8836,-1.8875,-1.8883,-1.8903,-1.8922,-1.8936,-1.8948,-1.8942,-1.8944,-1.8943,-1.8978,-1.8973,-1.8976,-1.8957,-1.8957,-1.8958,-1.8976,0,-1.8568,-1.8616,-1.8643,-1.868,-1.8707,-1.8731,-1.8754,-1.8783,-1.8804,-1.883,-1.8854,-1.8882,-1.8889,-1.8902,-1.8917,-1.8943,-1.8955,-1.8942,-1.8979,-1.898,-1.8971,-1.8979,-1.8974,-1.8989,-1.8978,-1.8979,-1.8979,0,-1.8587,-1.8618,-1.8658,-1.87,-1.8712,-1.8732,-1.8767,-1.8791,-1.8824,-1.8839,-1.8863,-1.8882,-1.891,-1.8911,-1.8951,-1.8942,-1.8958,-1.8973,-1.8974,-1.8979,-1.898,-1.8985,-1.8994,-1.8997,-1.8983,-1.8983,-1.8983,0,-1.8576,-1.8627,-1.8658,-1.8675,-1.8724,-1.8738,-1.8759,-1.8792,-1.8812,-1.8843,-1.8856,-1.8889,-1.8907,-1.8932,-1.8959,-1.8957,-1.8997,-1.9,-1.901,-1.901,-1.9018,-1.9017,-1.9031,-1.9027,-1.9026,-1.9026,-1.9026,0,-1.8586,-1.8609,-1.8654,-1.8673,-1.8701,-1.8732,-1.8758,-1.8781,-1.8811,-1.8835,-1.8857,-1.8879,-1.8913,-1.8939,-1.896,-1.8991,-1.8998,-1.9012,-1.9017,-1.901,-1.9009,-1.9022,-1.9023,-1.9027,-1.9027,-1.9027,-1.9027,0,-1.8578,-1.8609,-1.8645,-1.8689,-1.8701,-1.8719,-1.8757,-1.8777,-1.88,-1.8831,-1.884,-1.8876,-1.8908,-1.8938,-1.898,-1.8994,-1.9026,-1.9032,-1.9015,-1.9018,-1.9028,-1.9027,-1.9051,-1.9056,-1.9047,-1.9047,-1.9047,0,-1.8583,-1.8602,-1.8649,-1.8668,-1.8689,-1.8718,-1.8739,-1.877,-1.879,-1.8831,-1.8846,-1.888,-1.8909,-1.896,-1.899,-1.9023,-1.9031,-1.9037,-1.9036,-1.9029,-1.9033,-1.9032,-1.9034,-1.9037,-1.9037,-1.9037,-1.9037,0,-1.8588,-1.8603,-1.8633,-1.8669,-1.8694,-1.8723,-1.8753,-1.8766,-1.8803,-1.8825,-1.8859,-1.8882,-1.8926,-1.896,-1.8997,-1.9018,-1.9034,-1.9037,-1.9041,-1.9035,-1.9025,-1.9032,-1.9015,-1.9036,-1.9036,-1.9036,-1.9036,-1.9036,-1.8588,-1.8607,-1.8644,-1.8677,-1.8703,-1.8731,-1.8752,-1.8779,-1.8808,-1.8848,-1.8864,-1.8899,-1.8933,-1.8984,-1.9005,-1.9033,-1.9036,-1.9042,-1.9044,-1.9045,-1.9045,-1.902,-1.904,-1.904,-1.904,-1.904,-1.904,0,-1.8596,-1.8621,-1.8652,-1.8694,-1.872,-1.8733,-1.8768,-1.8788,-1.8819,-1.885,-1.8879,-1.8919,-1.8952,-1.8986,-1.9021,-1.9037,-1.9045,-1.9045,-1.9045,-1.905,-1.9039,-1.9033,-1.9038,-1.9038,-1.9038,-1.9038,-1.9038,-1.9038,-1.8603,-1.8637,-1.8656,-1.8703,-1.8728,-1.8764,-1.8782,-1.8808,-1.8834,-1.8878,-1.8906,-1.8928,-1.896,-1.8998,-1.903,-1.9039,-1.9051,-1.905,-1.9061,-1.905,-1.905,-1.905,-1.9044,-1.9052,-1.9052,-1.9069,-1.9069,-1.9069]}]]